CW7324 Weather Reports


time (UTC)temp
F
wind
direction
speed
knots
gust
knots
rain 1hr
in
rain 24hr
in
rain mn
in
humidity
%
barometer
mb
20260507151530 55 360 3.5 12.2 0.00 0.32 0.00 56 1006.9
20260507151044 55 186 4.3 9.6 0.00 0.32 0.00 56 1006.9
20260507150528 54 309 4.3 9.6 0.00 0.32 0.00 60 1007.0
20260507150045 52 248 3.5 9.6 0.00 0.32 0.00 64 1007.0
20260507145546 52 319 5.2 9.6 0.00 0.32 0.00 71 1007.0
20260507145041 54 355 2.6 5.2 0.00 0.32 0.00 75 1007.0
20260507144548 55 39 3.5 5.2 0.00 0.32 0.00 62 1006.9
20260507144037 53 298 1.7 6.1 0.00 0.32 0.00 78 1006.9
20260507143525 50 25 1.7 7.0 0.00 0.32 0.00 73 1006.9
20260507143041 51 292 2.6 10.4 0.00 0.32 0.00 76 1006.9
20260507142537 52 39 3.5 10.4 0.00 0.32 0.00 72 1006.9
20260507142032 51 327 0.9 3.5 0.00 0.32 0.00 77 1007.0
20260507141608 51 16 0.9 2.6 0.00 0.32 0.00 73 1007.0
20260507141026 51 290 0.0 3.5 0.00 0.32 0.00 74 1007.0
20260507140523 51 294 1.7 7.8 0.00 0.32 0.00 72 1007.0
20260507140041 51 5 2.6 7.8 0.00 0.32 0.00 72 1006.9
20260507135552 51 331 4.3 7.0 0.00 0.32 0.00 69 1007.0
20260507135025 51 29 1.7 7.0 0.00 0.32 0.00 67 1007.1
20260507134603 52 277 1.7 5.2 0.00 0.32 0.00 70 1007.0
20260507134036 52 220 1.7 4.3 0.00 0.32 0.00 70 1007.0
20260507133528 50 238 0.9 6.1 0.00 0.32 0.00 77 1007.1
20260507133036 50 292 1.7 6.1 0.00 0.32 0.00 72 1007.2
20260507132530 51 273 1.7 4.3 0.00 0.32 0.00 77 1007.3
20260507132037 50 282 1.7 4.3 0.00 0.32 0.00 80 1007.3
20260507131527 50 31 0.9 6.1 0.00 0.32 0.00 74 1007.5
20260507131047 50 266 1.7 9.6 0.00 0.32 0.00 78 1007.5
20260507130524 51 5 1.7 6.1 0.00 0.32 0.00 73 1007.4
20260507130050 50 275 2.6 7.0 0.00 0.32 0.00 77 1007.5
20260507125525 49 355 1.7 7.0 0.00 0.32 0.00 81 1007.6
20260507125055 49 325 1.7 6.1 0.00 0.32 0.00 76 1007.5
20260507124543 50 325 2.6 6.1 0.00 0.32 0.00 74 1007.4
20260507124037 49 46 0.9 5.2 0.00 0.32 0.00 77 1007.3
20260507123532 49 345 2.6 6.1 0.00 0.32 0.00 76 1007.3
20260507123024 49 152 1.7 6.1 0.00 0.32 0.00 79 1007.3
20260507122529 48 316 0.9 7.0 0.00 0.32 0.00 80 1007.4
20260507122043 48 263 2.6 7.0 0.00 0.32 0.00 80 1007.3
20260507121534 48 183 1.7 5.2 0.00 0.32 0.00 83 1007.4
20260507121053 47 350 1.7 5.2 0.00 0.32 0.00 81 1007.5
20260507120531 47 257 1.7 7.0 0.00 0.32 0.00 81 1007.5
20260507120051 47 273 1.7 7.0 0.00 0.32 0.00 81 1007.5
20260507115551 47 282 2.6 5.2 0.00 0.32 0.00 81 1007.7
20260507115035 47 309 1.7 5.2 0.00 0.32 0.00 83 1007.6
20260507114523 46 344 1.7 3.5 0.00 0.32 0.00 85 1007.6
20260507114036 46 326 2.6 3.5 0.00 0.32 0.00 85 1007.5
20260507113549 46 254 0.9 5.2 0.00 0.32 0.00 89 1007.5
20260507113038 46 302 2.6 5.2 0.00 0.32 0.00 87 1007.4
20260507112555 45 321 1.7 4.3 0.00 0.32 0.00 90 1007.5
20260507112031 44 259 0.9 4.3 0.00 0.32 0.00 90 1007.4
20260507111549 44 325 1.7 4.3 0.00 0.32 0.00 90 1007.5
20260507111035 44 269 0.9 4.3 0.00 0.32 0.00 91 1007.4
20260507110531 43 345 0.0 4.3 0.00 0.32 0.00 92 1007.4
20260507110042 43 287 0.9 2.6 0.00 0.32 0.00 93 1007.4
20260507105538 43 309 0.0 1.7 0.00 0.32 0.00 92 1007.3
20260507105041 42 260 0.0 0.9 0.00 0.32 0.00 92 1007.2
20260507104536 42 260 0.0 0.9 0.00 0.32 0.00 93 1007.1
20260507103543 42 248 0.0 2.6 0.00 0.32 0.00 93 1007.0
20260507103032 41 288 0.0 2.6 0.00 0.32 0.00 94 1006.9
20260507102529 41 271 0.9 2.6 0.00 0.32 0.00 95 1006.9
20260507102022 41 280 0.0 0.0 0.00 0.32 0.00 94 1007.0
20260507101551 41 261 0.0 3.5 0.00 0.32 0.00 93 1007.1
20260507101042 41 263 0.0 3.5 0.00 0.32 0.00 92 1007.3
20260507100552 41 200 0.9 2.6 0.00 0.32 0.00 93 1007.2
20260507100043 41 269 0.9 4.3 0.00 0.32 0.00 95 1007.1
20260507095526 41 321 0.9 4.3 0.00 0.32 0.00 95 1007.1
20260507095027 41 228 0.0 1.7 0.00 0.32 0.00 95 1007.3
20260507094532 41 298 0.0 1.7 0.00 0.32 0.00 95 1007.4
20260507094029 41 296 0.0 1.7 0.00 0.32 0.00 95 1007.3
20260507093531 41 303 0.0 2.6 0.00 0.32 0.00 94 1007.2
20260507093059 41 323 0.9 2.6 0.00 0.32 0.00 94 1007.3
20260507092528 42 260 0.9 2.6 0.00 0.32 0.00 94 1007.3
20260507092034 42 259 0.0 0.0 0.00 0.32 0.00 94 1007.5
20260507091532 42 259 0.0 3.5 0.00 0.32 0.00 93 1007.4
20260507091032 42 259 0.0 3.5 0.00 0.32 0.00 92 1007.5
20260507090549 43 211 0.9 6.1 0.00 0.32 0.00 92 1007.4
20260507090035 43 304 3.5 7.0 0.00 0.32 0.00 91 1006.9
20260507085522 43 293 1.7 7.0 0.00 0.32 0.00 92 1006.8
20260507085028 43 317 1.7 4.3 0.00 0.32 0.00 90 1006.9
20260507084552 43 262 1.7 3.5 0.00 0.32 0.00 93 1006.9
20260507084034 43 244 0.9 3.5 0.00 0.32 0.00 93 1007.1
20260507083537 43 271 0.0 3.5 0.00 0.32 0.00 93 1007.0
20260507083030 43 201 0.9 2.6 0.00 0.32 0.00 91 1007.0
20260507082531 43 175 0.9 2.6 0.00 0.32 0.00 92 1006.8
20260507082031 43 264 0.9 7.0 0.00 0.32 0.00 92 1006.8
20260507081532 43 298 2.6 7.0 0.00 0.32 0.00 90 1006.7
20260507081034 43 290 1.7 4.3 0.00 0.32 0.00 92 1006.7
20260507080531 43 268 0.9 5.2 0.00 0.32 0.00 93 1006.8
20260507080043 43 273 1.7 4.3 0.00 0.32 0.00 93 1006.9
20260507075530 43 293 0.9 2.6 0.00 0.32 0.00 92 1006.7
20260507075030 43 188 0.0 2.6 0.00 0.32 0.00 93 1006.9
20260507074532 43 203 0.0 1.7 0.00 0.32 0.00 93 1006.9
20260507074026 43 329 0.0 3.5 0.00 0.32 0.00 93 1006.7
20260507073524 43 329 0.9 3.5 0.00 0.32 0.00 93 1006.6
20260507073048 43 210 0.0 2.6 0.00 0.32 0.00 93 1006.7
20260507072531 43 210 0.9 3.5 0.00 0.32 0.00 93 1006.5
20260507072030 43 264 1.7 3.5 0.00 0.32 0.00 92 1006.3
20260507071524 43 285 0.0 3.5 0.00 0.32 0.00 93 1006.3
20260507071029 44 158 1.7 5.2 0.00 0.32 0.00 92 1006.1
20260507070553 44 224 1.7 5.2 0.00 0.32 0.00 91 1006.0
20260507070036 44 347 0.0 4.3 0.00 0.32 0.00 91 1006.2
20260507065529 44 207 1.7 7.0 0.00 0.32 0.00 92 1006.2
20260507065040 44 264 1.7 5.2 0.00 0.32 0.00 92 1006.0
20260507064526 45 303 0.0 5.2 0.00 0.32 0.00 92 1006.5
20260507064051 45 273 0.0 5.2 0.00 0.32 0.00 91 1006.6
20260507063533 45 355 1.7 4.3 0.00 0.32 0.00 91 1006.3
20260507063029 45 320 0.9 7.8 0.00 0.32 0.00 92 1006.5
20260507062030 45 273 1.7 7.0 0.00 0.32 0.00 91 1006.4
20260507061541 45 192 1.7 7.0 0.00 0.32 0.00 92 1006.6
20260507061038 45 246 1.7 4.3 0.00 0.32 0.00 92 1006.4
20260507060544 45 275 1.7 4.3 0.00 0.32 0.00 91 1006.1
20260507060037 45 346 1.7 6.1 0.00 0.32 0.00 93 1006.4
20260507055533 45 292 1.7 6.1 0.00 0.32 0.00 92 1006.4
20260507055029 45 254 1.7 3.5 0.00 0.32 0.00 93 1006.6
20260507054540 45 148 1.7 6.1 0.00 0.32 0.00 92 1006.7
20260507054031 45 147 1.7 6.1 0.00 0.32 0.00 93 1006.5
20260507053523 45 263 0.9 3.5 0.00 0.32 0.00 93 1006.4
20260507053030 45 197 0.9 3.5 0.00 0.32 0.00 94 1006.4
20260507052552 45 317 0.9 5.2 0.00 0.32 0.00 94 1006.3
20260507052022 45 196 1.7 5.2 0.00 0.32 0.00 93 1006.2
20260507051543 46 277 0.9 5.2 0.00 0.32 0.00 94 1006.0
20260507051035 46 298 0.9 3.5 0.00 0.32 0.00 94 1006.0
20260507050534 46 202 0.9 5.2 0.00 0.32 0.00 93 1006.0
20260507050023 46 273 1.7 5.2 0.00 0.32 0.00 94 1006.1
20260507045542 46 113 0.9 5.2 0.00 0.32 0.32 94 1006.0
20260507045024 46 315 0.0 5.2 0.00 0.32 0.32 94 1006.0
20260507044547 46 260 2.6 5.2 0.00 0.32 0.32 94 1006.0
20260507044035 46 279 0.9 2.6 0.00 0.32 0.32 94 1006.2
20260507043551 46 279 0.9 2.6 0.00 0.32 0.32 94 1006.3
20260507043030 46 242 0.0 1.7 0.00 0.32 0.32 94 1006.3
20260507042522 46 242 0.9 1.7 0.00 0.32 0.32 94 1006.2
20260507042035 46 165 0.0 1.7 0.00 0.32 0.32 94 1006.4
20260507041551 46 229 0.0 3.5 0.00 0.32 0.32 94 1006.3
20260507041030 46 207 0.9 3.5 0.00 0.32 0.32 93 1006.2
20260507040546 46 349 0.0 3.5 0.00 0.32 0.32 94 1006.3
20260507040053 46 237 1.7 3.5 0.00 0.32 0.32 94 1006.2
20260507035523 46 334 0.9 3.5 0.00 0.32 0.32 93 1006.1
20260507035037 46 263 0.9 3.5 0.01 0.32 0.32 93 1006.3
20260507034527 46 254 0.9 3.5 0.02 0.32 0.32 94 1006.2
20260507034031 46 233 0.9 2.6 0.02 0.32 0.32 94 1006.3
20260507033554 46 245 0.9 7.0 0.02 0.32 0.32 94 1006.2
20260507033056 47 280 1.7 7.0 0.02 0.32 0.32 94 1006.2
20260507032550 47 300 1.7 6.1 0.02 0.32 0.32 94 1006.2
20260507032028 47 264 2.6 6.1 0.03 0.32 0.32 94 1006.2
20260507031552 47 236 0.9 3.5 0.03 0.32 0.32 94 1006.1
20260507031030 47 263 1.7 3.5 0.03 0.32 0.32 94 1006.2
20260507030550 47 278 1.7 3.5 0.03 0.32 0.32 94 1006.2
20260507030024 48 190 0.9 3.5 0.03 0.32 0.32 94 1006.2
20260507025544 48 234 0.0 3.5 0.03 0.32 0.32 93 1006.3
20260507025103 48 231 1.7 3.5 0.02 0.31 0.31 93 1006.3
20260507024526 48 216 1.7 4.3 0.02 0.30 0.30 94 1006.3
20260507024042 48 189 1.7 4.3 0.02 0.30 0.30 93 1006.3
20260507023530 48 278 1.7 3.5 0.03 0.30 0.30 94 1006.1
20260507023036 49 265 1.7 7.8 0.03 0.30 0.30 93 1005.9
20260507022522 49 261 2.6 8.7 0.02 0.29 0.29 92 1005.9
20260507022037 49 297 2.6 6.1 0.02 0.29 0.29 93 1005.9
20260507021554 49 301 2.6 8.7 0.03 0.29 0.29 93 1006.0
20260507021039 50 271 3.5 8.7 0.03 0.29 0.29 94 1005.8
20260507020529 50 216 2.6 8.7 0.03 0.29 0.29 94 1005.5
20260507020053 50 260 2.6 8.7 0.03 0.29 0.29 93 1005.4
20260507015551 50 298 1.7 7.8 0.03 0.29 0.29 94 1005.5
20260507015034 51 236 2.6 8.7 0.04 0.29 0.29 94 1005.6
20260507014527 51 270 4.3 10.4 0.03 0.28 0.28 92 1005.7
20260507014032 51 232 2.6 10.4 0.02 0.27 0.27 93 1005.3
20260507013532 52 276 2.6 7.8 0.02 0.27 0.27 93 1005.3
20260507013100 52 300 3.5 8.7 0.03 0.27 0.27 92 1005.3
20260507012546 52 301 2.6 8.7 0.03 0.27 0.27 94 1005.2
20260507012033 53 261 3.5 10.4 0.04 0.27 0.27 92 1005.0
20260507011535 53 297 4.3 10.4 0.03 0.26 0.26 92 1005.0
20260507011049 54 259 2.6 7.0 0.03 0.26 0.26 94 1004.9
20260507010552 54 260 1.7 6.1 0.03 0.26 0.26 95 1004.9
20260507010059 54 285 0.0 0.0 0.04 0.26 0.26 95 1004.9
20260507005547 54 285 0.0 1.7 0.05 0.26 0.26 94 1004.9
20260507005029 55 297 0.0 2.6 0.04 0.25 0.25 94 1004.8
20260507004532 55 244 0.9 6.1 0.04 0.25 0.25 92 1004.8
20260507004038 55 290 2.6 7.8 0.04 0.25 0.25 94 1004.7
20260507003544 56 340 1.7 10.4 0.04 0.25 0.25 93 1004.6
20260507003032 57 317 4.3 8.7 0.03 0.24 0.24 94 1004.3
20260507002552 58 298 0.9 3.5 0.02 0.23 0.23 95 1004.4
20260507002041 58 239 0.0 5.2 0.02 0.23 0.23 94 1004.0
20260507001526 58 158 0.9 6.1 0.02 0.23 0.23 94 1003.9
20260507001053 58 155 2.6 6.1 0.02 0.23 0.23 94 1003.8
20260507000553 58 162 1.7 4.3 0.02 0.23 0.23 94 1003.8
20260507000038 58 144 1.7 4.3 0.01 0.22 0.22 93 1003.7
20260506235550 58 164 2.6 5.2 0.00 0.25 0.21 92 1003.7
20260506235033 58 145 0.9 5.2 0.00 0.25 0.21 92 1003.7
20260506234533 58 198 2.6 6.1 0.00 0.25 0.21 92 1003.6
20260506234033 58 135 1.7 7.0 0.00 0.25 0.21 92 1003.5
20260506233542 58 169 3.5 7.0 0.00 0.25 0.21 92 1003.6
20260506233036 59 180 3.5 6.1 0.00 0.25 0.21 91 1003.6
20260506232545 59 162 1.7 6.1 0.00 0.25 0.21 92 1003.6
20260506232034 59 186 2.6 7.0 0.00 0.25 0.21 91 1003.6
20260506231523 59 148 1.7 7.0 0.00 0.25 0.21 91 1003.5
20260506231034 59 165 4.3 9.6 0.00 0.25 0.21 91 1003.6
20260506230549 59 127 3.5 9.6 0.00 0.25 0.21 92 1003.5
20260506230033 59 173 2.6 7.8 0.00 0.25 0.21 92 1003.5
20260506225525 59 171 2.6 7.8 0.00 0.27 0.21 91 1003.5
20260506225042 59 154 3.5 7.0 0.00 0.27 0.21 91 1003.4
20260506224550 59 108 1.7 7.8 0.00 0.27 0.21 91 1003.5
20260506224030 60 103 2.6 9.6 0.00 0.27 0.21 91 1003.5
20260506223549 60 186 4.3 9.6 0.00 0.27 0.21 91 1003.6
20260506223033 60 137 1.7 7.8 0.00 0.27 0.21 92 1003.5
20260506222537 60 147 2.6 7.8 0.00 0.27 0.21 92 1003.6
20260506222033 60 222 1.7 7.0 0.00 0.27 0.21 92 1003.6
20260506221608 60 120 2.6 7.0 0.00 0.27 0.21 91 1003.5
20260506221036 60 159 2.6 7.0 0.00 0.27 0.21 92 1003.6
20260506220534 60 190 1.7 7.8 0.00 0.27 0.21 91 1003.7
20260506220044 60 184 2.6 7.8 0.00 0.27 0.21 91 1003.6
20260506215539 60 78 0.9 7.0 0.00 0.27 0.21 91 1003.6
20260506215032 60 200 2.6 8.7 0.00 0.27 0.21 91 1003.7
20260506214548 60 184 3.5 9.6 0.00 0.27 0.21 91 1003.6
20260506214038 60 204 4.3 9.6 0.00 0.27 0.21 90 1003.6
20260506213534 61 153 1.7 11.3 0.00 0.27 0.21 91 1003.6
20260506213032 61 167 3.5 11.3 0.01 0.27 0.21 90 1003.6
20260506212548 61 146 4.3 10.4 0.01 0.27 0.21 90 1003.6
20260506212033 61 134 5.2 9.6 0.01 0.27 0.21 90 1003.7
20260506211531 61 244 1.7 7.8 0.01 0.27 0.21 90 1003.8
20260506211026 61 167 4.3 8.7 0.01 0.27 0.21 90 1003.8
20260506210529 61 199 4.3 10.4 0.01 0.27 0.21 91 1003.8
20260506210033 61 164 5.2 9.6 0.01 0.27 0.21 90 1003.8
20260506205534 61 190 3.5 7.8 0.01 0.27 0.21 91 1003.9
20260506205059 61 164 5.2 11.3 0.02 0.27 0.21 90 1003.8
20260506204535 61 126 2.6 8.7 0.02 0.27 0.21 91 1003.9
20260506204059 61 173 4.3 7.0 0.03 0.27 0.21 90 1003.9
20260506203542 61 170 5.2 10.4 0.04 0.27 0.21 91 1003.9
20260506203055 61 134 5.2 10.4 0.04 0.26 0.20 91 1004.0
20260506202523 60 161 3.5 8.7 0.05 0.26 0.20 91 1004.1
20260506202038 61 120 3.5 7.0 0.06 0.26 0.20 92 1004.1
20260506201523 61 145 1.7 6.1 0.07 0.26 0.20 90 1004.2
20260506201032 61 108 0.9 6.1 0.07 0.26 0.20 92 1004.3
20260506200554 60 171 0.0 6.1 0.07 0.26 0.20 92 1004.3
20260506200025 60 159 0.0 3.5 0.08 0.26 0.20 91 1004.3
20260506195545 60 159 0.9 3.5 0.08 0.26 0.20 92 1004.4
20260506195034 60 148 1.7 3.5 0.08 0.25 0.19 92 1004.5
20260506194534 60 99 2.6 4.3 0.07 0.24 0.18 91 1004.7
20260506194032 60 240 0.9 6.1 0.08 0.24 0.18 91 1004.7
20260506193531 60 130 0.9 4.3 0.07 0.23 0.17 92 1004.7
20260506193049 60 155 2.6 5.2 0.06 0.22 0.16 91 1004.6
20260506192525 60 157 1.7 5.2 0.05 0.21 0.15 90 1004.7
20260506192041 60 150 1.7 3.5 0.04 0.20 0.14 90 1004.8
20260506191541 60 88 0.0 4.3 0.04 0.19 0.13 91 1004.7
20260506191035 60 130 2.6 5.2 0.04 0.19 0.13 91 1004.8
20260506190603 60 159 2.6 7.8 0.04 0.19 0.13 91 1004.9
20260506190032 60 188 2.6 12.2 0.04 0.18 0.12 90 1005.1
20260506185535 60 138 2.6 9.6 0.05 0.18 0.12 90 1005.2
20260506185023 60 160 1.7 6.1 0.05 0.17 0.11 91 1005.3
20260506184551 60 159 3.5 7.0 0.05 0.17 0.11 90 1005.3
20260506184028 60 133 1.7 7.0 0.05 0.16 0.10 90 1005.3
20260506183538 60 148 1.7 7.0 0.06 0.16 0.10 92 1005.5
20260506183025 60 145 3.5 7.0 0.06 0.16 0.10 89 1005.6
20260506182542 60 148 2.6 6.1 0.07 0.16 0.10 90 1005.7
20260506182028 60 121 3.5 8.7 0.08 0.16 0.10 90 1005.7
20260506181605 61 169 4.3 7.0 0.07 0.15 0.09 90 1005.8
20260506181034 61 149 2.6 7.0 0.08 0.15 0.09 89 1005.8
20260506180534 60 169 1.7 6.1 0.07 0.14 0.08 91 1005.9
20260506180031 60 157 3.5 6.1 0.08 0.14 0.08 90 1006.1
20260506175546 61 175 3.5 7.0 0.07 0.13 0.07 89 1006.1
20260506175033 61 123 1.7 6.1 0.06 0.12 0.06 89 1006.1
20260506174525 60 230 1.7 6.1 0.05 0.11 0.05 91 1006.1
20260506174040 61 171 3.5 6.1 0.05 0.11 0.05 88 1006.2
20260506173546 61 207 2.6 5.2 0.04 0.10 0.04 88 1006.1
20260506173025 61 182 0.9 7.0 0.04 0.10 0.04 90 1006.2
20260506172523 61 154 2.6 7.0 0.03 0.09 0.03 87 1006.1
20260506172033 61 113 1.7 6.1 0.02 0.08 0.02 89 1006.1
20260506171553 61 165 1.7 6.1 0.02 0.08 0.02 89 1006.1
20260506171022 62 180 2.6 6.1 0.01 0.07 0.01 86 1006.1
20260506170547 63 184 1.7 6.1 0.01 0.07 0.01 83 1006.1
20260506170036 63 229 3.5 8.7 0.00 0.06 0.00 82 1006.0
20260506165552 64 194 2.6 9.6 0.00 0.06 0.00 77 1005.9
20260506165038 64 171 3.5 11.3 0.00 0.06 0.00 81 1005.9
20260506164529 64 119 2.6 11.3 0.00 0.06 0.00 80 1006.0
20260506164040 65 243 2.6 7.8 0.00 0.06 0.00 77 1006.0
20260506163527 65 153 2.6 11.3 0.00 0.06 0.00 75 1006.0
20260506163057 66 193 5.2 11.3 0.00 0.06 0.00 74 1006.0
20260506162554 66 154 2.6 6.1 0.00 0.06 0.00 76 1006.1
20260506162042 66 134 0.9 7.0 0.00 0.06 0.00 75 1006.2
20260506161546 66 175 3.5 7.0 0.00 0.06 0.00 75 1006.2
20260506161023 65 173 1.7 4.3 0.00 0.06 0.00 75 1006.3
20260506160551 65 120 1.7 3.5 0.00 0.06 0.00 76 1006.4
20260506160049 65 196 0.9 3.5 0.00 0.06 0.00 77 1006.6
20260506155525 65 130 0.9 3.5 0.00 0.06 0.00 79 1006.7
20260506155039 64 192 0.9 2.6 0.00 0.06 0.00 81 1006.8
20260506154611 64 192 1.7 3.5 0.00 0.06 0.00 77 1007.0
20260506154030 64 149 1.7 3.5 0.00 0.06 0.00 77 1007.3
20260506153533 64 122 0.9 6.1 0.00 0.06 0.00 78 1007.4
20260506153030 64 169 1.7 6.1 0.00 0.06 0.00 76 1007.5
20260506152528 64 167 1.7 3.5 0.00 0.06 0.00 75 1007.4
20260506152038 64 181 1.7 3.5 0.00 0.06 0.00 76 1007.4